| time (UTC) | temp F | wind direction | speed knots | gust knots | rain 1hr in | rain 24hr in | rain mn in | humidity % | barometer mb |
| 20260506153330 | 65 | 327 | 0.9 | 6.1 | 0.00 | 0.02 | 0.01 | 51 | |
| 20260506152830 | 66 | 87 | 2.6 | 4.3 | 0.00 | 0.02 | 0.01 | 51 | |
| 20260506152330 | 67 | 33 | 0.0 | 2.6 | 0.00 | 0.02 | 0.01 | 52 | |
| 20260506151830 | 67 | 85 | 0.9 | 1.7 | 0.00 | 0.02 | 0.01 | 52 | |
| 20260506151330 | 67 | 25 | 0.0 | 2.6 | 0.00 | 0.02 | 0.01 | 51 | |
| 20260506150830 | 66 | 357 | 0.0 | 3.5 | 0.00 | 0.02 | 0.01 | 51 | |
| 20260506150330 | 67 | 344 | 0.9 | 5.2 | 0.00 | 0.02 | 0.01 | 50 | |
| 20260506145830 | 68 | 338 | 0.0 | 2.6 | 0.00 | 0.02 | 0.01 | 52 | |
| 20260506145330 | 69 | 1 | 0.0 | 3.5 | 0.00 | 0.02 | 0.01 | 51 | |
| 20260506144830 | 69 | 352 | 1.7 | 7.0 | 0.00 | 0.02 | 0.01 | 55 | |
| 20260506144330 | 69 | 298 | 0.0 | 4.3 | 0.00 | 0.02 | 0.01 | 55 | |
| 20260506143830 | 69 | 324 | 0.0 | 6.1 | 0.00 | 0.02 | 0.01 | 53 | |
| 20260506143330 | 68 | 77 | 0.0 | 4.3 | 0.00 | 0.02 | 0.01 | 54 | |
| 20260506142830 | 68 | 307 | 0.0 | 3.5 | 0.00 | 0.02 | 0.01 | 56 | |
| 20260506142330 | 67 | 357 | 0.0 | 3.5 | 0.00 | 0.02 | 0.01 | 55 | |
| 20260506141830 | 67 | 338 | 0.0 | 1.7 | 0.00 | 0.02 | 0.01 | 56 | |
| 20260506141330 | 66 | 267 | 0.0 | 2.6 | 0.00 | 0.02 | 0.01 | 56 | |
| 20260506140830 | 66 | 8 | 2.6 | 3.5 | 0.00 | 0.02 | 0.01 | 57 | |
| 20260506140330 | 66 | 82 | 0.9 | 5.2 | 0.00 | 0.02 | 0.01 | 56 | |
| 20260506135830 | 65 | 1 | 0.0 | 3.5 | 0.00 | 0.02 | 0.01 | 58 | |
| 20260506135330 | 65 | 94 | 0.0 | 0.9 | 0.00 | 0.02 | 0.01 | 59 | |
| 20260506134830 | 63 | 40 | 0.0 | 5.2 | 0.00 | 0.02 | 0.01 | 59 | |
| 20260506134330 | 64 | 18 | 0.9 | 2.6 | 0.00 | 0.02 | 0.01 | 60 | |
| 20260506133830 | 65 | 85 | 0.0 | 3.5 | 0.00 | 0.02 | 0.01 | 61 | |
| 20260506133330 | 65 | 330 | 0.0 | 2.6 | 0.00 | 0.02 | 0.01 | 61 | |
| 20260506132830 | 65 | 275 | 0.0 | 4.3 | 0.00 | 0.02 | 0.01 | 62 | |
| 20260506132331 | 64 | 343 | 1.7 | 1.7 | 0.00 | 0.02 | 0.01 | 62 | |
| 20260506131831 | 65 | 29 | 0.0 | 2.6 | 0.00 | 0.02 | 0.01 | 62 | |
| 20260506131331 | 64 | 337 | 0.0 | 3.5 | 0.00 | 0.02 | 0.01 | 62 | |
| 20260506130831 | 64 | 286 | 0.0 | 5.2 | 0.00 | 0.02 | 0.01 | 63 | |
| 20260506130331 | 63 | 1 | 0.0 | 3.5 | 0.00 | 0.02 | 0.01 | 63 | |
| 20260506125831 | 63 | 329 | 0.0 | 5.2 | 0.00 | 0.02 | 0.01 | 65 | |
| 20260506125331 | 63 | 286 | 0.0 | 3.5 | 0.00 | 0.02 | 0.01 | 66 | |
| 20260506124831 | 62 | 338 | 0.0 | 3.5 | 0.00 | 0.02 | 0.01 | 66 | |
| 20260506124331 | 63 | 348 | 1.7 | 4.3 | 0.01 | 0.02 | 0.01 | 65 | |
| 20260506123831 | 62 | 268 | 0.0 | 2.6 | 0.01 | 0.02 | 0.01 | 64 | |
| 20260506123331 | 63 | 334 | 0.0 | 5.2 | 0.01 | 0.02 | 0.01 | 63 | |
| 20260506122831 | 63 | 16 | 0.0 | 5.2 | 0.01 | 0.02 | 0.01 | 62 | |
| 20260506122331 | 64 | 337 | 0.0 | 0.9 | 0.01 | 0.02 | 0.01 | 63 | |
| 20260506121831 | 63 | 60 | 0.0 | 4.3 | 0.01 | 0.02 | 0.01 | 63 | |
| 20260506121331 | 63 | 94 | 2.6 | 4.3 | 0.01 | 0.02 | 0.01 | 61 | |
| 20260506120831 | 64 | 319 | 0.0 | 5.2 | 0.01 | 0.02 | 0.01 | 61 | |
| 20260506120331 | 65 | 327 | 0.9 | 6.1 | 0.01 | 0.02 | 0.01 | 62 | |
| 20260506115831 | 64 | 25 | 1.7 | 3.5 | 0.01 | 0.02 | 0.01 | 62 | |
| 20260506115331 | 64 | 272 | 0.0 | 3.5 | 0.01 | 0.02 | 0.01 | 61 | |
| 20260506114831 | 64 | 340 | 1.7 | 3.5 | 0.01 | 0.02 | 0.01 | 62 | |
| 20260506114331 | 64 | 61 | 1.7 | 5.2 | 0.00 | 0.01 | 0.00 | 63 | |
| 20260506113831 | 64 | 68 | 0.0 | 5.2 | 0.00 | 0.01 | 0.00 | 65 | |
| 20260506113331 | 65 | 35 | 0.0 | 4.3 | 0.00 | 0.01 | 0.00 | 64 | |
| 20260506112831 | 64 | 73 | 0.9 | 6.1 | 0.00 | 0.01 | 0.00 | 67 | |
| 20260506112331 | 64 | 310 | 0.9 | 5.2 | 0.00 | 0.01 | 0.00 | 68 | |
| 20260506111831 | 64 | 337 | 4.3 | 5.2 | 0.00 | 0.01 | 0.00 | 68 | |
| 20260506111331 | 63 | 317 | 0.0 | 6.1 | 0.00 | 0.01 | 0.00 | 68 | |
| 20260506110831 | 63 | 37 | 0.0 | 6.1 | 0.00 | 0.01 | 0.00 | 68 | |
| 20260506110331 | 63 | 52 | 3.5 | 3.5 | 0.00 | 0.01 | 0.00 | 71 | |
| 20260506105831 | 62 | 347 | 0.0 | 4.3 | 0.00 | 0.01 | 0.00 | 71 | |
| 20260506105331 | 61 | 78 | 1.7 | 7.8 | 0.00 | 0.01 | 0.00 | 71 | |
| 20260506104831 | 61 | 337 | 2.6 | 6.1 | 0.00 | 0.01 | 0.00 | 71 | |
| 20260506104331 | 61 | 43 | 0.0 | 7.0 | 0.00 | 0.01 | 0.00 | 72 | |
| 20260506103831 | 60 | 310 | 0.0 | 5.2 | 0.00 | 0.01 | 0.00 | 77 | |
| 20260506103331 | 60 | 345 | 0.0 | 5.2 | 0.00 | 0.01 | 0.00 | 78 | |
| 20260506102831 | 59 | 154 | 0.0 | 2.6 | 0.00 | 0.01 | 0.00 | 81 | |
| 20260506102331 | 57 | 7 | 0.0 | 2.6 | 0.00 | 0.01 | 0.00 | 83 | |
| 20260506101831 | 56 | 16 | 0.0 | 2.6 | 0.00 | 0.01 | 0.00 | 83 | |
| 20260506101331 | 55 | 1 | 0.0 | 3.5 | 0.00 | 0.01 | 0.00 | 83 | |
| 20260506100831 | 55 | 319 | 0.0 | 4.3 | 0.00 | 0.01 | 0.00 | 83 | |
| 20260506100331 | 55 | 15 | 0.0 | 1.7 | 0.00 | 0.01 | 0.00 | 83 | |
| 20260506095831 | 56 | 344 | 0.0 | 0.9 | 0.00 | 0.01 | 0.00 | 84 | |
| 20260506095331 | 55 | 326 | 0.0 | 4.3 | 0.00 | 0.01 | 0.00 | 84 | |
| 20260506094831 | 56 | 2 | 0.0 | 2.6 | 0.00 | 0.01 | 0.00 | 85 | |
| 20260506094331 | 55 | 345 | 1.7 | 1.7 | 0.00 | 0.01 | 0.00 | 85 | |
| 20260506093831 | 54 | 354 | 0.0 | 0.0 | 0.00 | 0.01 | 0.00 | 84 | |
| 20260506093331 | 55 | 354 | 0.0 | 0.0 | 0.00 | 0.01 | 0.00 | 85 | |
| 20260506092831 | 55 | 354 | 0.0 | 3.5 | 0.00 | 0.01 | 0.00 | 85 | |
| 20260506092331 | 55 | 315 | 0.0 | 1.7 | 0.00 | 0.01 | 0.00 | 86 | |
| 20260506091831 | 55 | 302 | 0.0 | 1.7 | 0.00 | 0.01 | 0.00 | 85 | |
| 20260506091331 | 54 | 316 | 0.9 | 0.9 | 0.00 | 0.01 | 0.00 | 85 | |
| 20260506090831 | 54 | 316 | 0.0 | 2.6 | 0.00 | 0.01 | 0.00 | 85 | |
| 20260506090331 | 54 | 1 | 0.0 | 1.7 | 0.00 | 0.01 | 0.00 | 85 | |
| 20260506085831 | 54 | 305 | 0.0 | 5.2 | 0.00 | 0.01 | 0.00 | 85 | |
| 20260506085331 | 53 | 21 | 0.0 | 5.2 | 0.00 | 0.01 | 0.00 | 84 | |
| 20260506084831 | 54 | 350 | 0.0 | 2.6 | 0.00 | 0.01 | 0.00 | 84 | |
| 20260506084331 | 53 | 15 | 0.0 | 5.2 | 0.00 | 0.01 | 0.00 | 84 | |
| 20260506083831 | 54 | 25 | 0.0 | 0.0 | 0.00 | 0.01 | 0.00 | 85 | |
| 20260506083331 | 54 | 25 | 0.0 | 2.6 | 0.00 | 0.01 | 0.00 | 85 | |
| 20260506082831 | 54 | 312 | 0.0 | 1.7 | 0.00 | 0.01 | 0.00 | 85 | |
| 20260506082331 | 54 | 15 | 0.0 | 5.2 | 0.00 | 0.01 | 0.00 | 85 | |
| 20260506081831 | 53 | 4 | 0.0 | 4.3 | 0.00 | 0.01 | 0.00 | 85 | |
| 20260506081331 | 54 | 33 | 0.0 | 4.3 | 0.00 | 0.01 | 0.00 | 85 | |
| 20260506080831 | 54 | 329 | 0.0 | 3.5 | 0.00 | 0.01 | 0.00 | 85 | |
| 20260506080331 | 53 | 354 | 0.0 | 3.5 | 0.00 | 0.01 | 0.00 | 85 | |
| 20260506073331 | 54 | 16 | 0.0 | 0.0 | 0.00 | 0.01 | 0.00 | 84 | |
| 20260506072831 | 55 | 16 | 0.0 | 6.1 | 0.00 | 0.01 | 0.00 | 84 | |
| 20260506072331 | 54 | 343 | 0.0 | 2.6 | 0.00 | 0.01 | 0.00 | 85 | |
| 20260506071831 | 54 | 295 | 0.0 | 2.6 | 0.00 | 0.01 | 0.00 | 85 | |
| 20260506071331 | 54 | 357 | 0.0 | 4.3 | 0.00 | 0.01 | 0.00 | 86 | |
| 20260506070831 | 54 | 343 | 0.0 | 3.5 | 0.00 | 0.01 | 0.00 | 86 | |
| 20260506070331 | 55 | 111 | 0.9 | 3.5 | 0.00 | 0.01 | 0.00 | 86 | |
| 20260506062331 | 54 | 19 | 0.0 | 1.7 | 0.00 | 0.01 | 0.00 | 88 | |
| 20260506061831 | 54 | 340 | 0.0 | 2.6 | 0.00 | 0.01 | 0.00 | 88 | |
| 20260506061331 | 54 | 288 | 0.0 | 0.0 | 0.00 | 0.01 | 0.00 | 88 | |
| 20260506060831 | 54 | 288 | 0.0 | 0.0 | 0.00 | 0.01 | 0.00 | 88 | |
| 20260506060331 | 54 | 288 | 0.0 | 0.0 | 0.00 | 0.01 | 0.00 | 88 | |
| 20260506051331 | 54 | 291 | 0.0 | 0.0 | 0.00 | 0.01 | 0.00 | 89 | |
| 20260506050831 | 53 | 288 | 0.0 | 0.9 | 0.00 | 0.01 | 0.00 | 89 | |
| 20260506050331 | 53 | 330 | 0.0 | 0.9 | 0.00 | 0.01 | 0.00 | 89 | |
| 20260506044831 | 53 | 271 | 0.0 | 0.0 | 0.00 | 0.01 | 0.00 | 89 | |
| 20260506044331 | 53 | 271 | 0.0 | 0.0 | 0.00 | 0.01 | 0.00 | 88 | |
| 20260506043831 | 53 | 271 | 0.0 | 2.6 | 0.00 | 0.02 | 0.00 | 89 | |
| 20260506043331 | 54 | 312 | 0.0 | 0.0 | 0.00 | 0.02 | 0.00 | 89 | |
| 20260506042831 | 53 | 312 | 0.0 | 0.0 | 0.00 | 0.02 | 0.00 | 88 | |
| 20260506042331 | 53 | 312 | 0.0 | 0.0 | 0.00 | 0.02 | 0.00 | 88 | |
| 20260506041831 | 53 | 312 | 0.0 | 0.0 | 0.00 | 0.02 | 0.00 | 88 | |
| 20260506041331 | 53 | 312 | 0.0 | 0.0 | 0.00 | 0.02 | 0.00 | 88 | |
| 20260506040831 | 53 | 312 | 0.0 | 0.0 | 0.00 | 0.02 | 0.00 | 88 | |
| 20260506040331 | 52 | 312 | 0.0 | 0.0 | 0.00 | 0.02 | 0.00 | 88 | |
| 20260506035831 | 53 | 312 | 0.0 | 0.0 | 0.00 | 0.02 | 0.00 | 88 | |
| 20260506035331 | 53 | 312 | 0.0 | 0.0 | 0.00 | 0.02 | 0.00 | 88 | |
| 20260506034831 | 53 | 312 | 0.0 | 0.0 | 0.00 | 0.02 | 0.00 | 88 | |
| 20260506034332 | 53 | 312 | 0.0 | 0.0 | 0.00 | 0.02 | 0.00 | 88 | |
| 20260506033831 | 53 | 312 | 0.0 | 0.0 | 0.00 | 0.02 | 0.00 | 88 | |
| 20260506033332 | 53 | 312 | 0.0 | 0.0 | 0.00 | 0.02 | 0.00 | 88 | |
| 20260506032832 | 53 | 312 | 0.0 | 0.0 | 0.00 | 0.02 | 0.00 | 88 | |
| 20260506032332 | 53 | 312 | 0.0 | 0.0 | 0.00 | 0.02 | 0.00 | 88 | |
| 20260506031832 | 53 | 312 | 0.0 | 0.0 | 0.00 | 0.02 | 0.00 | 88 | |
| 20260506031332 | 53 | 312 | 0.0 | 0.0 | 0.00 | 0.02 | 0.00 | 88 | |
| 20260506030832 | 53 | 312 | 0.0 | 2.6 | 0.00 | 0.02 | 0.00 | 88 | |
| 20260506030332 | 54 | 47 | 0.0 | 0.0 | 0.00 | 0.02 | 0.00 | 88 | |
| 20260506025832 | 53 | 47 | 0.0 | 2.6 | 0.00 | 0.02 | 0.00 | 88 | |
| 20260506025332 | 53 | 303 | 0.0 | 0.0 | 0.00 | 0.02 | 0.00 | 88 | |
| 20260506024832 | 54 | 303 | 0.0 | 0.0 | 0.00 | 0.02 | 0.00 | 88 | |
| 20260506024332 | 54 | 303 | 0.0 | 0.0 | 0.00 | 0.02 | 0.00 | 88 | |
| 20260506023832 | 53 | 303 | 0.0 | 0.0 | 0.00 | 0.02 | 0.00 | 88 | |
| 20260506023332 | 53 | 303 | 0.0 | 0.0 | 0.00 | 0.02 | 0.00 | 88 | |
| 20260506022832 | 53 | 303 | 0.0 | 0.0 | 0.00 | 0.02 | 0.00 | 88 | |
| 20260506022332 | 54 | 303 | 0.0 | 0.0 | 0.00 | 0.02 | 0.00 | 88 | |
| 20260506021832 | 54 | 303 | 0.0 | 0.0 | 0.00 | 0.02 | 0.00 | 88 | |
| 20260506021332 | 54 | 303 | 0.0 | 0.0 | 0.00 | 0.02 | 0.00 | 88 | |
| 20260506020832 | 54 | 303 | 0.0 | 0.0 | 0.00 | 0.02 | 0.00 | 88 | |
| 20260506020332 | 53 | 303 | 0.0 | 0.0 | 0.00 | 0.02 | 0.00 | 88 | |
| 20260506015832 | 53 | 303 | 0.0 | 0.0 | 0.00 | 0.02 | 0.00 | 88 | |
| 20260506015332 | 54 | 303 | 0.0 | 0.0 | 0.00 | 0.02 | 0.00 | 88 | |
| 20260506014832 | 53 | 303 | 0.0 | 0.0 | 0.00 | 0.02 | 0.00 | 88 | |
| 20260506014332 | 54 | 303 | 0.0 | 0.0 | 0.00 | 0.02 | 0.00 | 87 | |
| 20260506013832 | 53 | 303 | 0.0 | 0.0 | 0.00 | 0.02 | 0.00 | 87 | |
| 20260506013332 | 54 | 303 | 0.0 | 0.0 | 0.00 | 0.02 | 0.00 | 87 | |
| 20260506012832 | 53 | 303 | 0.0 | 0.0 | 0.00 | 0.02 | 0.00 | 87 | |
| 20260506012332 | 53 | 303 | 0.0 | 0.0 | 0.00 | 0.02 | 0.00 | 87 | |
| 20260506011832 | 54 | 303 | 0.0 | 0.0 | 0.00 | 0.02 | 0.00 | 87 | |
| 20260506011332 | 53 | 303 | 0.0 | 0.0 | 0.00 | 0.02 | 0.00 | 87 | |
| 20260506010832 | 53 | 303 | 0.0 | 0.0 | 0.00 | 0.02 | 0.00 | 87 | |
| 20260506010332 | 53 | 303 | 0.0 | 0.0 | 0.00 | 0.02 | 0.00 | 87 | |
| 20260506005832 | 54 | 303 | 0.0 | 0.0 | 0.00 | 0.02 | 0.00 | 87 | |
| 20260506005332 | 54 | 303 | 0.0 | 0.0 | 0.00 | 0.02 | 0.00 | 86 | |
| 20260506004832 | 53 | 303 | 0.0 | 0.0 | 0.00 | 0.02 | 0.00 | 86 | |
| 20260506004332 | 53 | 303 | 0.0 | 0.0 | 0.00 | 0.02 | 0.00 | 86 | |
| 20260506003832 | 53 | 303 | 0.0 | 0.0 | 0.00 | 0.02 | 0.00 | 86 | |
| 20260506003332 | 53 | 303 | 0.0 | 0.0 | 0.00 | 0.02 | 0.00 | 86 | |
| 20260506002832 | 53 | 303 | 0.0 | 0.0 | 0.00 | 0.02 | 0.00 | 86 | |
| 20260506002332 | 54 | 303 | 0.0 | 0.0 | 0.00 | 0.02 | 0.00 | 86 | |
| 20260506001832 | 54 | 303 | 0.0 | 0.0 | 0.00 | 0.02 | 0.00 | 86 | |
| 20260506001332 | 53 | 303 | 0.0 | 0.0 | 0.00 | 0.02 | 0.00 | 86 | |
| 20260506000832 | 54 | 303 | 0.0 | 0.0 | 0.00 | 0.02 | 0.00 | 86 | |
| 20260506000332 | 54 | 303 | 0.0 | 0.0 | 0.00 | 0.02 | 0.00 | 86 | |
| 20260505235832 | 54 | 303 | 0.0 | 0.0 | 0.00 | 0.02 | 0.00 | 86 | |
| 20260505235332 | 54 | 303 | 0.0 | 0.0 | 0.00 | 0.02 | 0.00 | 86 | |
| 20260505234832 | 54 | 303 | 0.0 | 0.0 | 0.00 | 0.02 | 0.00 | 86 | |
| 20260505234332 | 53 | 303 | 0.0 | 0.0 | 0.00 | 0.02 | 0.00 | 86 | |
| 20260505233832 | 54 | 303 | 0.0 | 0.0 | 0.00 | 0.02 | 0.00 | 86 | |
| 20260505233332 | 54 | 303 | 0.0 | 0.0 | 0.00 | 0.02 | 0.00 | 86 | |
| 20260505232832 | 54 | 303 | 0.0 | 0.0 | 0.00 | 0.02 | 0.00 | 85 | |
| 20260505232332 | 54 | 303 | 0.0 | 0.0 | 0.00 | 0.02 | 0.00 | 86 | |
| 20260505231832 | 54 | 303 | 0.0 | 0.0 | 0.00 | 0.02 | 0.00 | 86 | |
| 20260505231332 | 54 | 303 | 0.0 | 0.0 | 0.00 | 0.02 | 0.00 | 85 | |
| 20260505230832 | 54 | 303 | 0.0 | 0.0 | 0.00 | 0.02 | 0.00 | 86 | |
| 20260505230332 | 54 | 303 | 0.0 | 0.0 | 0.00 | 0.02 | 0.00 | 85 | |
| 20260505225832 | 54 | 303 | 0.0 | 0.0 | 0.00 | 0.02 | 0.00 | 85 | |
| 20260505225332 | 54 | 303 | 0.0 | 0.0 | 0.00 | 0.02 | 0.00 | 85 | |
| 20260505224832 | 54 | 303 | 0.0 | 0.0 | 0.00 | 0.02 | 0.02 | 85 | |
| 20260505224332 | 54 | 303 | 0.0 | 0.0 | 0.00 | 0.02 | 0.02 | 85 | |
| 20260505223832 | 54 | 303 | 0.0 | 0.0 | 0.00 | 0.02 | 0.02 | 85 | |
| 20260505223332 | 54 | 303 | 0.0 | 0.0 | 0.00 | 0.02 | 0.02 | 85 | |
| 20260505222832 | 54 | 303 | 0.0 | 0.0 | 0.00 | 0.02 | 0.02 | 85 | |
| 20260505222332 | 54 | 303 | 0.0 | 0.0 | 0.00 | 0.02 | 0.02 | 85 | |
| 20260505221832 | 54 | 303 | 0.0 | 0.0 | 0.00 | 0.02 | 0.02 | 85 | |
| 20260505221332 | 54 | 303 | 0.0 | 0.0 | 0.00 | 0.02 | 0.02 | 85 | |
| 20260505220832 | 53 | 303 | 0.0 | 0.0 | 0.00 | 0.02 | 0.02 | 85 | |
| 20260505220332 | 54 | 303 | 0.0 | 0.0 | 0.00 | 0.02 | 0.02 | 85 | |
| 20260505215832 | 54 | 303 | 0.0 | 0.0 | 0.00 | 0.02 | 0.02 | 85 | |
| 20260505215332 | 54 | 303 | 0.0 | 0.0 | 0.00 | 0.02 | 0.02 | 85 | |
| 20260505214832 | 54 | 303 | 0.0 | 0.0 | 0.00 | 0.02 | 0.02 | 85 | |
| 20260505214332 | 54 | 303 | 0.0 | 0.0 | 0.00 | 0.02 | 0.02 | 85 | |
| 20260505213832 | 54 | 303 | 0.0 | 0.0 | 0.00 | 0.02 | 0.02 | 85 | |
| 20260505213332 | 53 | 303 | 0.0 | 0.0 | 0.00 | 0.02 | 0.02 | 85 | |
| 20260505212832 | 54 | 303 | 0.0 | 0.0 | 0.00 | 0.02 | 0.02 | 85 | |
| 20260505212332 | 54 | 303 | 0.0 | 0.0 | 0.00 | 0.02 | 0.02 | 85 | |
| 20260505211832 | 54 | 303 | 0.0 | 0.0 | 0.00 | 0.02 | 0.02 | 85 | |
| 20260505211332 | 54 | 303 | 0.0 | 0.0 | 0.00 | 0.02 | 0.02 | 85 | |
| 20260505210832 | 54 | 303 | 0.0 | 0.0 | 0.00 | 0.02 | 0.02 | 85 | |
| 20260505210332 | 54 | 303 | 0.0 | 0.0 | 0.00 | 0.02 | 0.02 | 85 | |
| 20260505205832 | 54 | 303 | 0.0 | 0.0 | 0.00 | 0.02 | 0.02 | 85 | |
| 20260505205332 | 53 | 303 | 0.0 | 0.0 | 0.00 | 0.02 | 0.02 | 85 | |
| 20260505204832 | 53 | 303 | 0.0 | 0.0 | 0.00 | 0.02 | 0.02 | 85 | |
| 20260505204332 | 53 | 303 | 0.0 | 0.0 | 0.00 | 0.02 | 0.02 | 85 | |
| 20260505203832 | 52 | 303 | 0.0 | 0.0 | 0.00 | 0.02 | 0.02 | 85 | |
| 20260505203332 | 53 | 303 | 0.0 | 0.0 | 0.00 | 0.02 | 0.02 | 85 | |
| 20260505202832 | 53 | 303 | 0.0 | 0.0 | 0.00 | 0.02 | 0.02 | 85 | |
| 20260505202332 | 53 | 303 | 0.0 | 0.0 | 0.00 | 0.02 | 0.02 | 84 | |
| 20260505201832 | 53 | 303 | 0.0 | 0.0 | 0.00 | 0.02 | 0.02 | 84 | |
| 20260505201332 | 54 | 303 | 0.0 | 0.0 | 0.00 | 0.02 | 0.02 | 84 | |
| 20260505200832 | 54 | 303 | 0.0 | 0.0 | 0.00 | 0.02 | 0.02 | 84 | |
| 20260505200332 | 54 | 303 | 0.0 | 0.0 | 0.00 | 0.02 | 0.02 | 84 | |
| 20260505195833 | 55 | 303 | 0.0 | 0.0 | 0.00 | 0.02 | 0.02 | 84 | |
| 20260505195332 | 55 | 303 | 0.0 | 0.0 | 0.00 | 0.02 | 0.02 | 83 | |
| 20260505194832 | 55 | 303 | 0.0 | 0.0 | 0.00 | 0.02 | 0.02 | 83 | |
| 20260505194332 | 56 | 303 | 0.0 | 0.0 | 0.00 | 0.02 | 0.02 | 83 | |
| 20260505193832 | 54 | 303 | 0.0 | 0.0 | 0.00 | 0.02 | 0.02 | 83 | |
| 20260505193332 | 55 | 303 | 0.0 | 0.0 | 0.00 | 0.02 | 0.02 | 83 | |
| 20260505192832 | 56 | 303 | 0.0 | 0.0 | 0.00 | 0.02 | 0.02 | 83 | |
| 20260505192332 | 55 | 303 | 0.0 | 0.0 | 0.00 | 0.02 | 0.02 | 83 | |
| 20260505191832 | 55 | 303 | 0.0 | 0.0 | 0.00 | 0.02 | 0.02 | 83 | |
| 20260505191332 | 55 | 303 | 0.0 | 0.0 | 0.00 | 0.02 | 0.02 | 83 | |
| 20260505190832 | 55 | 303 | 0.0 | 0.0 | 0.00 | 0.02 | 0.02 | 83 | |
| 20260505190332 | 55 | 303 | 0.0 | 0.0 | 0.00 | 0.02 | 0.02 | 83 | |
| 20260505185832 | 55 | 303 | 0.0 | 0.0 | 0.00 | 0.02 | 0.02 | 83 | |
| 20260505185332 | 55 | 303 | 0.0 | 0.0 | 0.00 | 0.02 | 0.02 | 83 | |
| 20260505184832 | 56 | 303 | 0.0 | 0.0 | 0.00 | 0.02 | 0.02 | 83 | |
| 20260505184332 | 55 | 303 | 0.0 | 0.0 | 0.00 | 0.02 | 0.02 | 82 | |
| 20260505183832 | 55 | 303 | 0.0 | 0.0 | 0.00 | 0.03 | 0.02 | 82 | |
| 20260505183332 | 55 | 303 | 0.0 | 0.0 | 0.00 | 0.03 | 0.02 | 82 | |
| 20260505182832 | 55 | 303 | 0.0 | 0.0 | 0.00 | 0.03 | 0.02 | 82 | |
| 20260505182332 | 57 | 303 | 0.0 | 0.0 | 0.00 | 0.03 | 0.02 | 81 | |
| 20260505181832 | 56 | 303 | 0.0 | 0.0 | 0.00 | 0.03 | 0.02 | 81 | |
| 20260505181332 | 57 | 303 | 0.0 | 0.0 | 0.01 | 0.03 | 0.02 | 81 | |
| 20260505180832 | 57 | 303 | 0.0 | 0.9 | 0.01 | 0.03 | 0.02 | 80 | |
| 20260505180332 | 57 | 323 | 0.0 | 1.7 | 0.01 | 0.03 | 0.02 | 80 | |
| 20260505175832 | 59 | 274 | 0.0 | 0.0 | 0.01 | 0.03 | 0.02 | 80 | |
| 20260505175332 | 58 | 274 | 0.0 | 0.0 | 0.01 | 0.03 | 0.02 | 80 | |
| 20260505174832 | 58 | 274 | 0.0 | 3.5 | 0.01 | 0.03 | 0.02 | 79 | |
| 20260505174332 | 58 | 305 | 3.5 | 3.5 | 0.01 | 0.03 | 0.02 | 79 | |
| 20260505173832 | 59 | 334 | 0.0 | 1.7 | 0.01 | 0.03 | 0.02 | 79 | |
| 20260505173332 | 58 | 334 | 0.0 | 1.7 | 0.01 | 0.03 | 0.02 | 78 | |
| 20260505172832 | 59 | 306 | 0.0 | 3.5 | 0.01 | 0.03 | 0.02 | 78 | |
| 20260505172332 | 59 | 317 | 0.0 | 2.6 | 0.01 | 0.03 | 0.02 | 77 | |
| 20260505171832 | 60 | 322 | 0.9 | 2.6 | 0.01 | 0.03 | 0.02 | 77 | |
| 20260505171332 | 60 | 286 | 0.0 | 3.5 | 0.00 | 0.02 | 0.01 | 78 | |
| 20260505170833 | 60 | 241 | 0.0 | 6.1 | 0.00 | 0.02 | 0.01 | 77 | |
| 20260505170332 | 62 | 341 | 6.1 | 6.1 | 0.00 | 0.02 | 0.01 | 77 | |
| 20260505165832 | 62 | 14 | 2.6 | 6.1 | 0.00 | 0.02 | 0.01 | 76 | |
| 20260505165332 | 62 | 264 | 0.0 | 4.3 | 0.00 | 0.02 | 0.01 | 76 | |
| 20260505164833 | 63 | 288 | 0.0 | 4.3 | 0.00 | 0.02 | 0.01 | 76 | |
| 20260505164333 | 64 | 298 | 0.0 | 2.6 | 0.00 | 0.02 | 0.01 | 77 | |
| 20260505163833 | 62 | 282 | 0.0 | 5.2 | 0.00 | 0.02 | 0.01 | 76 | |
| 20260505163333 | 63 | 286 | 0.9 | 4.3 | 0.00 | 0.02 | 0.01 | 76 | |
| 20260505162833 | 62 | 255 | 0.0 | 3.5 | 0.00 | 0.02 | 0.01 | 77 | |
| 20260505162333 | 63 | 236 | 0.0 | 0.0 | 0.00 | 0.02 | 0.01 | 77 | |
| 20260505161833 | 62 | 236 | 0.0 | 5.2 | 0.00 | 0.02 | 0.01 | 77 | |
| 20260505161333 | 63 | 295 | 0.0 | 4.3 | 0.00 | 0.02 | 0.01 | 77 | |
| 20260505160833 | 61 | 274 | 1.7 | 4.3 | 0.00 | 0.02 | 0.01 | 77 | |
| 20260505160333 | 62 | 275 | 0.0 | 2.6 | 0.00 | 0.02 | 0.01 | 78 |